Terminal Aerodrome Forecast
Issued by NWS

Home | Current Version | Previous Version | Text Only | Print | Product List | Glossary On
Versions: 1 2 3 4 5 6 7 8 9 10 11 12 13 14 15 16 17 18 19 20 21 22
000
FTUS44 KLIX 312300 RRA
TAFHDC
TAF
KHDC 312340Z 0100/0124 04004KT P6SM BKN300
     FM010400 00000KT P6SM BKN250
     FM011300 35004KT P6SM BKN150=

USA.gov is the U.S. government's official web portal to all federal, state and local government web resources and services.